Time,TemperatureF,DewpointF,PressureIn,WindDirection,WindDirectionDegrees,WindSpeedMPH,WindSpeedGustMPH,Humidity,HourlyPrecipIn,Conditions,Clouds,dailyrainin,SoftwareType,DateUTC
2013-05-05 00:01:00,52.7,44.3,30.00,South,180,0.0,0.0,73,0.00,,,0.00,WUHU21623XXSP,2013-05-05 05:01:00,
2013-05-05 00:06:00,52.5,44.3,30.00,ESE,112,0.0,0.0,73,0.00,,,0.00,WUHU21623XXSP,2013-05-05 05:06:00,
2013-05-05 00:11:00,52.3,44.0,30.01,SE,135,0.0,0.0,73,0.00,,,0.00,WUHU21623XXSP,2013-05-05 05:11:00,
2013-05-05 00:16:00,52.2,44.1,30.00,South,180,0.0,0.0,74,0.00,,,0.00,WUHU21623XXSP,2013-05-05 05:16:00,
2013-05-05 00:21:00,52.0,44.0,30.00,SSE,157,0.0,0.0,74,0.00,,,0.00,WUHU21623XXSP,2013-05-05 05:21:00,
2013-05-05 00:26:00,51.8,43.8,30.01,SSE,157,0.0,0.0,74,0.00,,,0.00,WUHU21623XXSP,2013-05-05 05:26:00,
2013-05-05 00:31:00,51.6,43.6,30.00,SSE,157,0.0,0.0,74,0.00,,,0.00,WUHU21623XXSP,2013-05-05 05:31:00,
2013-05-05 00:36:00,51.4,43.8,30.01,SSE,157,0.0,0.0,75,0.00,,,0.00,WUHU21623XXSP,2013-05-05 05:36:00,
2013-05-05 00:41:00,51.1,43.4,30.01,SSE,157,0.0,0.0,75,0.00,,,0.00,WUHU21623XXSP,2013-05-05 05:41:00,
2013-05-05 00:46:00,51.3,43.6,30.01,SSW,202,0.0,0.0,75,0.00,,,0.00,WUHU21623XXSP,2013-05-05 05:46:00,
2013-05-05 00:51:00,51.4,43.8,30.01,SE,135,0.0,0.0,75,0.00,,,0.00,WUHU21623XXSP,2013-05-05 05:51:00,
2013-05-05 00:56:00,51.6,44.0,30.01,South,180,0.0,0.0,75,0.00,,,0.00,WUHU21623XXSP,2013-05-05 05:56:00,
2013-05-05 01:01:00,51.4,43.8,30.01,NNW,337,0.0,0.0,75,0.00,,,0.00,WUHU21623XXSP,2013-05-05 06:01:00,
2013-05-05 01:06:00,51.6,44.0,30.01,NE,45,0.0,0.0,75,0.00,,,0.00,WUHU21623XXSP,2013-05-05 06:06:00,
2013-05-05 01:11:00,51.6,44.0,30.01,NE,45,0.0,0.0,75,0.00,,,0.00,WUHU21623XXSP,2013-05-05 06:11:00,
2013-05-05 01:16:00,51.4,43.8,30.01,ESE,112,0.0,1.3,75,0.00,,,0.00,WUHU21623XXSP,2013-05-05 06:16:00,
2013-05-05 01:21:00,51.6,44.0,30.01,SSE,157,0.0,1.3,75,0.00,,,0.00,WUHU21623XXSP,2013-05-05 06:21:00,
2013-05-05 01:26:00,51.3,43.6,30.01,SSW,202,0.0,0.0,75,0.00,,,0.00,WUHU21623XXSP,2013-05-05 06:26:00,
2013-05-05 01:31:00,51.4,43.8,30.01,ENE,67,0.0,0.0,75,0.00,,,0.00,WUHU21623XXSP,2013-05-05 06:31:00,
2013-05-05 01:36:00,51.3,43.6,30.01,SSW,202,0.0,0.0,75,0.00,,,0.00,WUHU21623XXSP,2013-05-05 06:36:00,
2013-05-05 01:41:00,51.1,43.4,30.01,North,0,0.0,0.0,75,0.00,,,0.00,WUHU21623XXSP,2013-05-05 06:41:00,
2013-05-05 01:46:00,51.1,43.4,30.00,SSE,157,0.0,1.6,75,0.00,,,0.00,WUHU21623XXSP,2013-05-05 06:46:00,
2013-05-05 01:51:00,51.1,43.4,30.00,SSE,157,0.0,1.6,75,0.00,,,0.00,WUHU21623XXSP,2013-05-05 06:51:00,
2013-05-05 01:56:00,50.9,43.3,30.00,SSE,157,0.0,1.1,75,0.00,,,0.00,WUHU21623XXSP,2013-05-05 06:56:00,
2013-05-05 02:01:00,50.7,43.1,30.00,ENE,67,0.0,0.0,75,0.00,,,0.00,WUHU21623XXSP,2013-05-05 07:01:00,
2013-05-05 02:06:00,50.4,43.1,30.00,SSE,157,0.0,0.0,76,0.00,,,0.00,WUHU21623XXSP,2013-05-05 07:06:00,
2013-05-05 02:11:00,50.5,43.2,30.01,South,180,0.0,0.0,76,0.00,,,0.00,WUHU21623XXSP,2013-05-05 07:11:00,
2013-05-05 02:16:00,50.5,43.2,30.00,SSE,157,0.0,0.0,76,0.00,,,0.00,WUHU21623XXSP,2013-05-05 07:16:00,
2013-05-05 02:21:00,50.5,42.9,30.00,SSW,202,0.0,0.0,75,0.00,,,0.00,WUHU21623XXSP,2013-05-05 07:21:00,
2013-05-05 02:26:00,50.2,42.5,30.00,SSW,202,0.0,0.0,75,0.00,,,0.00,WUHU21623XXSP,2013-05-05 07:26:00,
2013-05-05 02:31:00,50.2,42.5,30.00,South,180,0.0,1.3,75,0.00,,,0.00,WUHU21623XXSP,2013-05-05 07:31:00,
2013-05-05 02:36:00,50.2,42.9,30.00,SE,135,0.0,1.3,76,0.00,,,0.00,WUHU21623XXSP,2013-05-05 07:36:00,
2013-05-05 02:41:00,49.6,42.3,30.00,South,180,0.0,0.0,76,0.00,,,0.00,WUHU21623XXSP,2013-05-05 07:41:00,
2013-05-05 02:46:00,49.6,42.3,30.00,SSE,157,0.0,2.0,76,0.00,,,0.00,WUHU21623XXSP,2013-05-05 07:46:00,
2013-05-05 02:51:00,49.3,42.3,30.00,SSE,157,0.0,2.0,77,0.00,,,0.00,WUHU21623XXSP,2013-05-05 07:51:00,
2013-05-05 02:56:00,48.7,41.8,30.00,SSW,202,0.0,0.0,77,0.00,,,0.00,WUHU21623XXSP,2013-05-05 07:56:00,
2013-05-05 03:01:00,48.7,42.1,30.00,South,180,1.3,1.3,78,0.00,,,0.00,WUHU21623XXSP,2013-05-05 08:01:00,
2013-05-05 03:06:00,48.7,42.1,30.00,South,180,0.0,1.3,78,0.00,,,0.00,WUHU21623XXSP,2013-05-05 08:06:00,
2013-05-05 03:11:00,48.6,42.3,30.01,SW,225,1.3,2.0,79,0.00,,,0.00,WUHU21623XXSP,2013-05-05 08:11:00,
2013-05-05 03:16:00,48.7,42.5,30.01,SSW,202,1.1,2.5,79,0.00,,,0.00,WUHU21623XXSP,2013-05-05 08:16:00,
2013-05-05 03:21:00,48.9,42.6,30.01,ESE,112,0.0,2.5,79,0.00,,,0.00,WUHU21623XXSP,2013-05-05 08:21:00,
2013-05-05 03:26:00,48.4,42.1,30.01,SE,135,0.0,1.1,79,0.00,,,0.00,WUHU21623XXSP,2013-05-05 08:26:00,
2013-05-05 03:31:00,48.0,41.8,30.01,SSW,202,1.1,2.0,79,0.00,,,0.00,WUHU21623XXSP,2013-05-05 08:31:00,
2013-05-05 03:36:00,47.8,41.9,30.01,South,180,0.0,2.0,80,0.00,,,0.00,WUHU21623XXSP,2013-05-05 08:36:00,
2013-05-05 03:41:00,47.8,41.9,30.01,ENE,67,0.0,2.5,80,0.00,,,0.00,WUHU21623XXSP,2013-05-05 08:41:00,
2013-05-05 03:46:00,47.8,42.2,30.01,ENE,67,1.6,4.7,81,0.00,,,0.00,WUHU21623XXSP,2013-05-05 08:46:00,
2013-05-05 03:51:00,47.8,42.2,30.01,SSE,157,0.0,4.7,81,0.00,,,0.00,WUHU21623XXSP,2013-05-05 08:51:00,
2013-05-05 03:56:00,48.0,42.4,30.01,WSW,247,3.1,4.7,81,0.00,,,0.00,WUHU21623XXSP,2013-05-05 08:56:00,
2013-05-05 04:01:00,47.8,42.2,30.01,SW,225,2.5,4.5,81,0.00,,,0.00,WUHU21623XXSP,2013-05-05 09:01:00,
2013-05-05 04:06:00,47.8,42.2,30.01,SSW,202,1.1,4.5,81,0.00,,,0.00,WUHU21623XXSP,2013-05-05 09:06:00,
2013-05-05 04:11:00,47.8,42.2,30.01,SE,135,0.0,2.2,81,0.00,,,0.00,WUHU21623XXSP,2013-05-05 09:11:00,
2013-05-05 04:15:00,47.5,41.9,30.01,ESE,112,0.0,0.0,81,0.00,,,0.00,WUHU21623XXSP,2013-05-05 09:15:00,
2013-05-05 04:21:00,47.1,41.9,30.01,SW,225,0.0,0.0,82,0.00,,,0.00,WUHU21623XXSP,2013-05-05 09:21:00,
2013-05-05 04:25:00,46.9,41.7,30.02,SW,225,0.0,0.0,82,0.00,,,0.00,WUHU21623XXSP,2013-05-05 09:25:00,
2013-05-05 04:31:00,46.6,41.4,30.01,ESE,112,0.0,0.0,82,0.00,,,0.00,WUHU21623XXSP,2013-05-05 09:31:00,
2013-05-05 04:36:00,46.2,41.4,30.01,ESE,112,0.0,0.0,83,0.00,,,0.00,WUHU21623XXSP,2013-05-05 09:36:00,
2013-05-05 04:41:00,46.0,41.2,30.02,ESE,112,0.0,0.0,83,0.00,,,0.00,WUHU21623XXSP,2013-05-05 09:41:00,
2013-05-05 04:45:00,45.5,40.7,30.01,NE,45,0.0,0.0,83,0.00,,,0.00,WUHU21623XXSP,2013-05-05 09:45:00,
2013-05-05 04:50:00,45.3,40.8,30.01,North,0,0.0,0.0,84,0.00,,,0.00,WUHU21623XXSP,2013-05-05 09:50:00,
2013-05-05 04:55:00,45.1,40.8,30.02,West,270,0.0,0.0,84,0.00,,,0.00,WUHU21623XXSP,2013-05-05 09:55:00,
2013-05-05 05:00:00,45.3,40.8,30.02,South,180,0.0,0.0,84,0.00,,,0.00,WUHU21623XXSP,2013-05-05 10:00:00,
2013-05-05 05:05:00,45.1,40.6,30.02,SSE,157,0.0,0.0,84,0.00,,,0.00,WUHU21623XXSP,2013-05-05 10:05:00,
2013-05-05 05:10:00,45.0,40.7,30.02,SSE,157,0.0,0.0,85,0.00,,,0.00,WUHU21623XXSP,2013-05-05 10:10:00,
2013-05-05 05:15:00,45.0,40.7,30.03,SSE,157,0.0,0.0,85,0.00,,,0.00,WUHU21623XXSP,2013-05-05 10:15:00,
2013-05-05 05:20:00,45.0,40.7,30.02,ESE,112,0.0,0.0,85,0.00,,,0.00,WUHU21623XXSP,2013-05-05 10:20:00,
2013-05-05 05:25:00,44.6,40.4,30.02,ESE,112,0.0,0.0,85,0.00,,,0.00,WUHU21623XXSP,2013-05-05 10:25:00,
2013-05-05 05:30:00,44.4,40.5,30.02,ESE,112,0.0,0.0,86,0.00,,,0.00,WUHU21623XXSP,2013-05-05 10:30:00,
2013-05-05 05:35:00,44.4,40.5,30.03,ESE,112,0.0,0.0,86,0.00,,,0.00,WUHU21623XXSP,2013-05-05 10:35:00,
2013-05-05 05:40:00,44.2,40.3,30.03,ESE,112,0.0,0.0,86,0.00,,,0.00,WUHU21623XXSP,2013-05-05 10:40:00,
2013-05-05 05:45:00,43.9,40.1,30.03,ESE,112,0.0,0.0,86,0.00,,,0.00,WUHU21623XXSP,2013-05-05 10:45:00,
2013-05-05 05:50:00,43.7,39.8,30.03,ESE,112,0.0,0.0,86,0.00,,,0.00,WUHU21623XXSP,2013-05-05 10:50:00,
2013-05-05 05:55:00,43.7,40.1,30.03,SSE,157,0.0,0.0,87,0.00,,,0.00,WUHU21623XXSP,2013-05-05 10:55:00,
2013-05-05 06:00:00,43.9,40.3,30.04,SSW,202,0.0,0.0,87,0.00,,,0.00,WUHU21623XXSP,2013-05-05 11:00:00,
2013-05-05 06:05:00,43.7,40.1,30.04,South,180,0.0,0.0,87,0.00,,,0.00,WUHU21623XXSP,2013-05-05 11:05:00,
2013-05-05 06:10:00,43.5,40.1,30.04,NW,315,0.0,0.0,87,0.00,,,0.00,WUHU21623XXSP,2013-05-05 11:10:00,
2013-05-05 06:15:00,43.5,39.9,30.04,SSE,157,0.0,0.0,87,0.00,,,0.00,WUHU21623XXSP,2013-05-05 11:15:00,
2013-05-05 06:20:00,43.5,39.9,30.04,SSE,157,0.0,0.0,87,0.00,,,0.00,WUHU21623XXSP,2013-05-05 11:20:00,
2013-05-05 06:25:00,43.5,40.2,30.04,SE,135,0.0,0.0,88,0.00,,,0.00,WUHU21623XXSP,2013-05-05 11:25:00,
2013-05-05 06:30:00,43.9,40.6,30.04,SSW,202,0.0,1.6,88,0.00,,,0.00,WUHU21623XXSP,2013-05-05 11:30:00,
2013-05-05 06:35:00,43.9,40.6,30.04,SSW,202,0.0,1.6,88,0.00,,,0.00,WUHU21623XXSP,2013-05-05 11:35:00,
2013-05-05 06:40:00,44.1,40.7,30.04,SSW,202,0.0,0.0,88,0.00,,,0.00,WUHU21623XXSP,2013-05-05 11:40:00,
2013-05-05 06:45:00,44.4,41.1,30.04,SSW,202,0.0,0.0,88,0.00,,,0.00,WUHU21623XXSP,2013-05-05 11:45:00,
2013-05-05 06:50:00,44.8,41.5,30.04,SSW,202,0.0,0.0,88,0.00,,,0.00,WUHU21623XXSP,2013-05-05 11:50:00,
2013-05-05 06:55:00,45.1,41.8,30.03,South,180,0.0,0.0,88,0.00,,,0.00,WUHU21623XXSP,2013-05-05 11:55:00,
2013-05-05 07:00:00,45.5,42.4,30.04,SSE,157,0.0,0.0,88,0.00,,,0.00,WUHU21623XXSP,2013-05-05 12:00:00,
2013-05-05 07:05:00,46.2,42.9,30.04,NE,45,0.0,0.0,88,0.00,,,0.00,WUHU21623XXSP,2013-05-05 12:05:00,
2013-05-05 07:10:00,46.9,43.3,30.04,ESE,112,0.0,0.0,87,0.00,,,0.00,WUHU21623XXSP,2013-05-05 12:10:00,
2013-05-05 07:15:00,47.7,44.0,30.04,South,180,0.0,0.0,87,0.00,,,0.00,WUHU21623XXSP,2013-05-05 12:15:00,
2013-05-05 07:20:00,48.7,45.0,30.04,ESE,112,0.0,3.4,87,0.00,,,0.00,WUHU21623XXSP,2013-05-05 12:20:00,
2013-05-05 07:25:00,49.8,45.4,30.04,NNE,22,0.0,3.4,85,0.00,,,0.00,WUHU21623XXSP,2013-05-05 12:25:00,
2013-05-05 07:30:00,51.1,46.1,30.03,NE,45,0.0,1.8,83,0.00,,,0.00,WUHU21623XXSP,2013-05-05 12:30:00,
2013-05-05 07:35:00,52.3,46.7,30.03,NE,45,0.0,2.5,81,0.00,,,0.00,WUHU21623XXSP,2013-05-05 12:35:00,
2013-05-05 07:40:00,53.2,46.6,30.04,East,90,1.3,3.6,78,0.00,,,0.00,WUHU21623XXSP,2013-05-05 12:40:00,
2013-05-05 07:45:00,54.0,46.5,30.03,NE,45,0.9,3.6,76,0.00,,,0.00,WUHU21623XXSP,2013-05-05 12:45:00,
2013-05-05 07:50:00,54.3,46.5,30.03,ENE,67,0.0,2.7,75,0.00,,,0.00,WUHU21623XXSP,2013-05-05 12:50:00,
2013-05-05 07:55:00,55.0,46.7,30.03,NNE,22,1.3,2.7,74,0.00,,,0.00,WUHU21623XXSP,2013-05-05 12:55:00,
2013-05-05 08:00:00,55.6,46.7,30.03,NNE,22,0.0,2.9,72,0.00,,,0.00,WUHU21623XXSP,2013-05-05 13:00:00,
2013-05-05 08:05:00,56.1,46.5,30.04,NE,45,0.0,3.1,70,0.00,,,0.00,WUHU21623XXSP,2013-05-05 13:05:00,
2013-05-05 08:10:00,56.5,46.4,30.04,ESE,112,0.0,5.4,69,0.00,,,0.00,WUHU21623XXSP,2013-05-05 13:10:00,
2013-05-05 08:15:00,57.0,46.5,30.04,East,90,2.5,5.4,68,0.00,,,0.00,WUHU21623XXSP,2013-05-05 13:15:00,
2013-05-05 08:20:00,57.6,46.6,30.03,ENE,67,1.3,3.6,67,0.00,,,0.00,WUHU21623XXSP,2013-05-05 13:20:00,
2013-05-05 08:25:00,57.9,47.4,30.04,SE,135,0.0,3.6,68,0.00,,,0.00,WUHU21623XXSP,2013-05-05 13:25:00,
2013-05-05 08:30:00,58.6,47.7,30.03,South,180,2.9,3.1,67,0.00,,,0.00,WUHU21623XXSP,2013-05-05 13:30:00,
2013-05-05 08:35:00,58.8,46.6,30.04,ENE,67,0.0,3.1,64,0.00,,,0.00,WUHU21623XXSP,2013-05-05 13:35:00,
2013-05-05 08:40:00,58.8,46.6,30.04,NE,45,0.0,4.3,64,0.00,,,0.00,WUHU21623XXSP,2013-05-05 13:40:00,
2013-05-05 08:45:00,58.8,46.6,30.04,ENE,67,2.0,4.3,64,0.00,,,0.00,WUHU21623XXSP,2013-05-05 13:45:00,
2013-05-05 08:50:00,58.8,47.0,30.04,East,90,2.9,3.6,65,0.00,,,0.00,WUHU21623XXSP,2013-05-05 13:50:00,
2013-05-05 08:55:00,59.5,47.3,30.04,ESE,112,0.0,2.9,64,0.00,,,0.00,WUHU21623XXSP,2013-05-05 13:55:00,
2013-05-05 09:00:00,60.1,47.0,30.04,ENE,67,0.0,4.3,62,0.00,,,0.00,WUHU21623XXSP,2013-05-05 14:00:00,
2013-05-05 09:05:00,60.4,47.4,30.03,North,0,1.1,5.1,62,0.00,,,0.00,WUHU21623XXSP,2013-05-05 14:05:00,
2013-05-05 09:10:00,61.0,47.9,30.03,East,90,2.0,5.1,62,0.00,,,0.00,WUHU21623XXSP,2013-05-05 14:10:00,
2013-05-05 09:15:00,61.5,46.6,30.03,ESE,112,0.7,4.9,58,0.00,,,0.00,WUHU21623XXSP,2013-05-05 14:15:00,
2013-05-05 09:20:00,61.5,47.1,30.03,SSE,157,2.2,4.9,59,0.00,,,0.00,WUHU21623XXSP,2013-05-05 14:20:00,
2013-05-05 09:25:00,61.9,46.9,30.03,NE,45,3.1,5.8,58,0.00,,,0.00,WUHU21623XXSP,2013-05-05 14:25:00,
2013-05-05 09:30:00,63.0,47.9,30.03,ESE,112,3.4,5.8,58,0.00,,,0.00,WUHU21623XXSP,2013-05-05 14:30:00,
2013-05-05 09:35:00,63.3,47.8,30.03,NNE,22,0.0,4.9,57,0.00,,,0.00,WUHU21623XXSP,2013-05-05 14:35:00,
2013-05-05 09:40:00,63.5,47.4,30.03,SSE,157,0.7,4.9,56,0.00,,,0.00,WUHU21623XXSP,2013-05-05 14:40:00,
2013-05-05 09:45:00,64.6,48.9,30.03,SE,135,0.0,4.0,57,0.00,,,0.00,WUHU21623XXSP,2013-05-05 14:45:00,
2013-05-05 09:50:00,65.1,47.5,30.02,NE,45,2.0,5.6,53,0.00,,,0.00,WUHU21623XXSP,2013-05-05 14:50:00,
2013-05-05 09:55:00,64.9,47.3,30.02,ENE,67,0.0,5.6,53,0.00,,,0.00,WUHU21623XXSP,2013-05-05 14:55:00,
2013-05-05 10:00:00,65.5,47.4,30.02,ENE,67,0.7,4.7,52,0.00,,,0.00,WUHU21623XXSP,2013-05-05 15:00:00,
2013-05-05 10:05:00,65.8,47.7,30.02,SE,135,0.0,4.9,52,0.00,,,0.00,WUHU21623XXSP,2013-05-05 15:05:00,
2013-05-05 10:10:00,66.2,47.6,30.02,ESE,112,0.0,4.9,51,0.00,,,0.00,WUHU21623XXSP,2013-05-05 15:10:00,
2013-05-05 10:15:00,66.9,49.2,30.02,NNE,22,1.6,4.7,52,0.00,,,0.00,WUHU21623XXSP,2013-05-05 15:15:00,
2013-05-05 10:20:00,67.3,48.6,30.02,NE,45,0.0,4.0,51,0.00,,,0.00,WUHU21623XXSP,2013-05-05 15:20:00,
2013-05-05 10:25:00,67.6,48.4,30.02,ESE,112,0.9,4.5,50,0.00,,,0.00,WUHU21623XXSP,2013-05-05 15:25:00,
2013-05-05 10:30:00,68.4,48.5,30.02,East,90,0.0,5.1,49,0.00,,,0.00,WUHU21623XXSP,2013-05-05 15:30:00,
2013-05-05 10:35:00,68.7,48.2,30.02,NNE,22,1.8,5.1,48,0.00,,,0.00,WUHU21623XXSP,2013-05-05 15:35:00,
2013-05-05 10:40:00,69.1,48.5,30.02,North,0,2.5,4.9,48,0.00,,,0.00,WUHU21623XXSP,2013-05-05 15:40:00,
2013-05-05 10:45:00,69.1,47.9,30.01,NNE,22,4.0,6.5,46,0.00,,,0.00,WUHU21623XXSP,2013-05-05 15:45:00,
2013-05-05 10:50:00,68.9,47.2,30.01,NE,45,0.7,6.5,46,0.00,,,0.00,WUHU21623XXSP,2013-05-05 15:50:00,
2013-05-05 10:55:00,68.7,47.0,30.01,NE,45,3.8,5.1,46,0.00,,,0.00,WUHU21623XXSP,2013-05-05 15:55:00,
2013-05-05 11:00:00,68.7,47.0,30.01,ESE,112,0.0,4.7,46,0.00,,,0.00,WUHU21623XXSP,2013-05-05 16:00:00,
2013-05-05 11:05:00,69.1,47.3,30.02,ENE,67,1.6,4.7,46,0.00,,,0.00,WUHU21623XXSP,2013-05-05 16:05:00,
2013-05-05 11:10:00,70.2,49.5,30.01,North,0,2.9,4.7,48,0.00,,,0.00,WUHU21623XXSP,2013-05-05 16:10:00,
2013-05-05 11:15:00,70.3,47.9,30.01,NE,45,1.1,4.0,45,0.00,,,0.00,WUHU21623XXSP,2013-05-05 16:15:00,
2013-05-05 11:20:00,70.2,48.3,30.02,NW,315,0.0,4.0,46,0.00,,,0.00,WUHU21623XXSP,2013-05-05 16:20:00,
2013-05-05 11:25:00,70.5,48.6,30.02,North,0,0.0,3.6,46,0.00,,,0.00,WUHU21623XXSP,2013-05-05 16:25:00,
2013-05-05 11:30:00,71.2,48.7,30.02,East,90,0.7,3.8,45,0.00,,,0.00,WUHU21623XXSP,2013-05-05 16:30:00,
2013-05-05 11:35:00,71.8,48.6,30.01,ENE,67,1.8,6.3,44,0.00,,,0.00,WUHU21623XXSP,2013-05-05 16:35:00,
2013-05-05 11:40:00,71.4,48.3,30.01,ENE,67,4.9,6.3,44,0.00,,,0.00,WUHU21623XXSP,2013-05-05 16:40:00,
2013-05-05 11:45:00,71.4,47.7,30.01,North,0,2.9,6.0,43,0.00,,,0.00,WUHU21623XXSP,2013-05-05 16:45:00,
2013-05-05 11:50:00,71.4,48.8,30.01,ESE,112,1.1,6.0,45,0.00,,,0.00,WUHU21623XXSP,2013-05-05 16:50:00,
2013-05-05 11:55:00,72.0,48.1,30.01,ENE,67,1.6,5.8,43,0.00,,,0.00,WUHU21623XXSP,2013-05-05 16:55:00,
2013-05-05 12:00:00,72.1,48.3,30.01,NE,45,1.8,5.8,43,0.00,,,0.00,WUHU21623XXSP,2013-05-05 17:00:00,
2013-05-05 12:05:00,71.8,48.0,30.01,ENE,67,3.6,5.8,43,0.00,,,0.00,WUHU21623XXSP,2013-05-05 17:05:00,
2013-05-05 12:10:00,71.8,48.6,30.01,NNE,22,2.2,6.0,44,0.00,,,0.00,WUHU21623XXSP,2013-05-05 17:10:00,
2013-05-05 12:15:00,72.3,49.1,30.01,ENE,67,1.3,6.0,44,0.00,,,0.00,WUHU21623XXSP,2013-05-05 17:15:00,
2013-05-05 12:20:00,73.2,49.9,30.01,ENE,67,2.5,5.8,44,0.00,,,0.00,WUHU21623XXSP,2013-05-05 17:20:00,
2013-05-05 12:25:00,73.9,49.3,30.00,NE,45,3.8,4.7,42,0.00,,,0.00,WUHU21623XXSP,2013-05-05 17:25:00,
2013-05-05 12:30:00,73.8,48.6,30.01,SE,135,0.9,5.4,41,0.00,,,0.00,WUHU21623XXSP,2013-05-05 17:30:00,
2013-05-05 12:35:00,74.1,49.5,30.00,WSW,247,4.0,5.4,42,0.00,,,0.00,WUHU21623XXSP,2013-05-05 17:35:00,
2013-05-05 12:40:00,74.1,50.1,30.00,SSE,157,4.9,5.1,42,0.00,,,0.00,WUHU21623XXSP,2013-05-05 17:40:00,
2013-05-05 12:45:00,73.8,48.6,30.00,NNE,22,2.9,7.4,41,0.00,,,0.00,WUHU21623XXSP,2013-05-05 17:45:00,
2013-05-05 12:50:00,73.8,48.0,29.99,North,0,1.3,7.4,40,0.00,,,0.00,WUHU21623XXSP,2013-05-05 17:50:00,
2013-05-05 12:55:00,73.9,48.7,30.00,SW,225,0.0,6.5,41,0.00,,,0.00,WUHU21623XXSP,2013-05-05 17:55:00,
2013-05-05 13:00:00,74.8,49.0,29.99,East,90,8.1,8.1,40,0.00,,,0.00,WUHU21623XXSP,2013-05-05 18:00:00,
2013-05-05 13:05:00,74.8,49.5,29.99,SW,225,1.6,8.1,41,0.00,,,0.00,WUHU21623XXSP,2013-05-05 18:05:00,
2013-05-05 13:10:00,75.0,49.1,29.99,East,90,1.3,8.1,40,0.00,,,0.00,WUHU21623XXSP,2013-05-05 18:10:00,
2013-05-05 13:15:00,75.4,47.9,29.99,ENE,67,4.7,10.1,38,0.00,,,0.00,WUHU21623XXSP,2013-05-05 18:15:00,
2013-05-05 13:20:00,74.8,48.2,29.99,NNE,22,0.7,10.1,39,0.00,,,0.00,WUHU21623XXSP,2013-05-05 18:20:00,
2013-05-05 13:25:00,75.2,49.3,29.99,ESE,112,1.3,6.3,40,0.00,,,0.00,WUHU21623XXSP,2013-05-05 18:25:00,
2013-05-05 13:30:00,75.7,49.0,29.98,ENE,67,2.0,5.6,39,0.00,,,0.00,WUHU21623XXSP,2013-05-05 18:30:00,
2013-05-05 13:35:00,75.9,49.2,29.99,East,90,1.3,6.3,39,0.00,,,0.00,WUHU21623XXSP,2013-05-05 18:35:00,
2013-05-05 13:40:00,75.7,49.0,29.98,ENE,67,2.0,6.3,39,0.00,,,0.00,WUHU21623XXSP,2013-05-05 18:40:00,
2013-05-05 13:45:00,76.1,48.6,29.98,SSE,157,1.6,5.1,38,0.00,,,0.00,WUHU21623XXSP,2013-05-05 18:45:00,
2013-05-05 13:50:00,75.9,49.2,29.98,North,0,4.0,5.1,39,0.00,,,0.00,WUHU21623XXSP,2013-05-05 18:50:00,
2013-05-05 13:55:00,75.7,48.3,29.98,ENE,67,1.8,4.5,38,0.00,,,0.00,WUHU21623XXSP,2013-05-05 18:55:00,
2013-05-05 14:00:00,75.4,48.7,29.98,ENE,67,2.9,4.5,39,0.00,,,0.00,WUHU21623XXSP,2013-05-05 19:00:00,
2013-05-05 14:05:00,75.0,46.9,29.98,SW,225,2.2,3.8,38,0.00,,,0.00,WUHU21623XXSP,2013-05-05 19:05:00,
2013-05-05 14:10:00,73.8,47.2,29.97,NE,45,2.0,5.4,39,0.00,,,0.00,WUHU21623XXSP,2013-05-05 19:10:00,
2013-05-05 14:15:00,73.8,47.2,29.98,ESE,112,3.8,6.7,39,0.00,,,0.00,WUHU21623XXSP,2013-05-05 19:15:00,
2013-05-05 14:20:00,74.1,47.6,29.97,ENE,67,1.6,6.7,39,0.00,,,0.00,WUHU21623XXSP,2013-05-05 19:20:00,
2013-05-05 14:25:00,74.5,47.1,29.97,ESE,112,2.0,5.4,38,0.00,,,0.00,WUHU21623XXSP,2013-05-05 19:25:00,
2013-05-05 14:30:00,75.0,46.9,29.97,North,0,3.8,6.3,37,0.00,,,0.00,WUHU21623XXSP,2013-05-05 19:30:00,
2013-05-05 14:35:00,76.1,47.1,29.97,NE,45,3.6,6.9,36,0.00,,,0.00,WUHU21623XXSP,2013-05-05 19:35:00,
2013-05-05 14:40:00,76.8,47.7,29.97,NE,45,7.4,7.4,36,0.00,,,0.00,WUHU21623XXSP,2013-05-05 19:40:00,
2013-05-05 14:45:00,77.0,47.9,29.97,SE,135,5.8,7.4,36,0.00,,,0.00,WUHU21623XXSP,2013-05-05 19:45:00,
2013-05-05 14:50:00,77.2,47.3,29.97,East,90,1.3,8.1,35,0.00,,,0.00,WUHU21623XXSP,2013-05-05 19:50:00,
2013-05-05 14:55:00,76.3,47.2,29.97,ESE,112,2.2,8.1,36,0.00,,,0.00,WUHU21623XXSP,2013-05-05 19:55:00,
2013-05-05 15:00:00,76.3,45.7,29.97,WSW,247,0.9,7.6,34,0.00,,,0.00,WUHU21623XXSP,2013-05-05 20:00:00,
2013-05-05 15:05:00,75.9,45.4,29.97,ENE,67,2.5,7.6,34,0.00,,,0.00,WUHU21623XXSP,2013-05-05 20:05:00,
2013-05-05 15:10:00,76.3,45.0,29.97,SW,225,1.1,4.7,33,0.00,,,0.00,WUHU21623XXSP,2013-05-05 20:10:00,
2013-05-05 15:15:00,76.3,45.7,29.96,NW,315,0.0,4.7,34,0.00,,,0.00,WUHU21623XXSP,2013-05-05 20:15:00,
2013-05-05 15:20:00,76.5,45.1,29.96,NNE,22,3.1,5.8,33,0.00,,,0.00,WUHU21623XXSP,2013-05-05 20:20:00,
2013-05-05 15:25:00,75.9,43.9,29.96,NNE,22,4.5,5.8,32,0.00,,,0.00,WUHU21623XXSP,2013-05-05 20:25:00,
2013-05-05 15:30:00,74.5,44.4,29.97,ENE,67,2.0,6.5,34,0.00,,,0.00,WUHU21623XXSP,2013-05-05 20:30:00,
2013-05-05 15:35:00,74.1,43.8,29.96,NE,45,0.0,6.5,34,0.00,,,0.00,WUHU21623XXSP,2013-05-05 20:35:00,
2013-05-05 15:40:00,73.9,44.4,29.96,SE,135,0.9,3.6,35,0.00,,,0.00,WUHU21623XXSP,2013-05-05 20:40:00,
2013-05-05 15:45:00,73.4,45.4,29.96,NE,45,2.7,4.9,37,0.00,,,0.00,WUHU21623XXSP,2013-05-05 20:45:00,
2013-05-05 15:50:00,73.8,45.7,29.96,ESE,112,2.5,4.9,37,0.00,,,0.00,WUHU21623XXSP,2013-05-05 20:50:00,
2013-05-05 15:55:00,73.9,44.4,29.96,SSE,157,2.0,5.8,35,0.00,,,0.00,WUHU21623XXSP,2013-05-05 20:55:00,
2013-05-05 16:00:00,74.1,46.0,29.97,NE,45,4.7,5.8,37,0.00,,,0.00,WUHU21623XXSP,2013-05-05 21:00:00,
2013-05-05 16:05:00,75.0,46.1,29.97,North,0,2.9,5.4,36,0.00,,,0.00,WUHU21623XXSP,2013-05-05 21:05:00,
2013-05-05 16:10:00,75.4,44.9,29.96,ESE,112,0.0,5.4,34,0.00,,,0.00,WUHU21623XXSP,2013-05-05 21:10:00,
2013-05-05 16:15:00,75.4,44.1,29.97,South,180,0.7,5.6,33,0.00,,,0.00,WUHU21623XXSP,2013-05-05 21:15:00,
2013-05-05 16:20:00,75.0,43.8,29.97,ENE,67,2.5,5.6,33,0.00,,,0.00,WUHU21623XXSP,2013-05-05 21:20:00,
2013-05-05 16:25:00,75.2,44.7,29.97,NE,45,2.2,6.3,34,0.00,,,0.00,WUHU21623XXSP,2013-05-05 21:25:00,
2013-05-05 16:30:00,75.0,44.6,29.96,East,90,0.0,6.3,34,0.00,,,0.00,WUHU21623XXSP,2013-05-05 21:30:00,
2013-05-05 16:35:00,74.5,43.3,29.97,North,0,0.0,4.0,33,0.00,,,0.00,WUHU21623XXSP,2013-05-05 21:35:00,
2013-05-05 16:40:00,74.1,43.8,29.97,ENE,67,2.9,6.3,34,0.00,,,0.00,WUHU21623XXSP,2013-05-05 21:40:00,
2013-05-05 16:45:00,73.9,43.6,29.97,SSE,157,0.0,6.7,34,0.00,,,0.00,WUHU21623XXSP,2013-05-05 21:45:00,
2013-05-05 16:50:00,74.3,43.9,29.98,NNE,22,2.2,6.7,34,0.00,,,0.00,WUHU21623XXSP,2013-05-05 21:50:00,
2013-05-05 16:55:00,74.8,44.4,29.97,East,90,5.1,5.1,34,0.00,,,0.00,WUHU21623XXSP,2013-05-05 21:55:00,
2013-05-05 17:00:00,74.5,43.3,29.97,North,0,1.1,5.8,33,0.00,,,0.00,WUHU21623XXSP,2013-05-05 22:00:00,
2013-05-05 17:05:00,74.3,43.2,29.98,SW,225,0.0,5.8,33,0.00,,,0.00,WUHU21623XXSP,2013-05-05 22:05:00,
2013-05-05 17:10:00,73.9,42.9,29.97,ENE,67,0.9,7.6,33,0.00,,,0.00,WUHU21623XXSP,2013-05-05 22:10:00,
2013-05-05 17:15:00,74.5,43.3,29.97,East,90,1.3,7.6,33,0.00,,,0.00,WUHU21623XXSP,2013-05-05 22:15:00,
2013-05-05 17:20:00,74.5,44.1,29.97,SE,135,0.0,5.1,34,0.00,,,0.00,WUHU21623XXSP,2013-05-05 22:20:00,
2013-05-05 17:25:00,75.4,43.4,29.97,South,180,0.0,4.3,32,0.00,,,0.00,WUHU21623XXSP,2013-05-05 22:25:00,
2013-05-05 17:30:00,75.0,43.1,29.97,ENE,67,1.8,3.8,32,0.00,,,0.00,WUHU21623XXSP,2013-05-05 22:30:00,
2013-05-05 17:35:00,74.5,41.8,29.97,NE,45,2.5,7.6,31,0.00,,,0.00,WUHU21623XXSP,2013-05-05 22:35:00,
2013-05-05 17:40:00,74.3,40.9,29.97,SSW,202,2.5,7.6,30,0.00,,,0.00,WUHU21623XXSP,2013-05-05 22:40:00,
2013-05-05 17:45:00,74.1,40.7,29.97,ENE,67,0.0,4.7,30,0.00,,,0.00,WUHU21623XXSP,2013-05-05 22:45:00,
2013-05-05 17:50:00,74.8,41.4,29.97,North,0,1.1,4.7,30,0.00,,,0.00,WUHU21623XXSP,2013-05-05 22:50:00,
2013-05-05 17:55:00,75.4,40.8,29.97,NE,45,1.6,6.0,29,0.00,,,0.00,WUHU21623XXSP,2013-05-05 22:55:00,
2013-05-05 18:00:00,75.9,42.4,29.97,SE,135,1.8,6.0,30,0.00,,,0.00,WUHU21623XXSP,2013-05-05 23:00:00,
2013-05-05 18:05:00,76.5,43.6,29.97,North,0,0.0,2.2,31,0.00,,,0.00,WUHU21623XXSP,2013-05-05 23:05:00,
2013-05-05 18:10:00,76.3,44.2,29.97,East,90,0.0,3.4,32,0.00,,,0.00,WUHU21623XXSP,2013-05-05 23:10:00,
2013-05-05 18:15:00,75.4,42.6,29.97,SE,135,1.6,5.8,31,0.00,,,0.00,WUHU21623XXSP,2013-05-05 23:15:00,
2013-05-05 18:20:00,74.8,42.2,29.97,ENE,67,0.0,5.8,31,0.00,,,0.00,WUHU21623XXSP,2013-05-05 23:20:00,
2013-05-05 18:25:00,74.1,42.3,29.97,SE,135,1.1,5.1,32,0.00,,,0.00,WUHU21623XXSP,2013-05-05 23:25:00,
2013-05-05 18:30:00,74.3,41.7,29.97,NE,45,1.6,3.6,31,0.00,,,0.00,WUHU21623XXSP,2013-05-05 23:30:00,
2013-05-05 18:35:00,74.5,41.8,29.97,East,90,2.5,3.6,31,0.00,,,0.00,WUHU21623XXSP,2013-05-05 23:35:00,
2013-05-05 18:40:00,74.5,42.6,29.98,ENE,67,1.6,2.9,32,0.00,,,0.00,WUHU21623XXSP,2013-05-05 23:40:00,
2013-05-05 18:45:00,74.3,43.2,29.97,SE,135,2.5,2.5,33,0.00,,,0.00,WUHU21623XXSP,2013-05-05 23:45:00,
2013-05-05 18:50:00,74.1,43.0,29.97,NE,45,3.4,4.5,33,0.00,,,0.00,WUHU21623XXSP,2013-05-05 23:50:00,
2013-05-05 18:55:00,73.0,42.1,29.98,ESE,112,1.3,4.5,33,0.00,,,0.00,WUHU21623XXSP,2013-05-05 23:55:00,
2013-05-05 19:00:00,71.6,42.4,29.98,North,0,0.0,3.8,35,0.00,,,0.00,WUHU21623XXSP,2013-05-06 00:00:00,
2013-05-05 19:05:00,70.9,41.7,29.98,SSW,202,0.0,2.7,35,0.00,,,0.00,WUHU21623XXSP,2013-05-06 00:05:00,
2013-05-05 19:10:00,70.3,42.0,29.98,NNE,22,0.0,2.7,36,0.00,,,0.00,WUHU21623XXSP,2013-05-06 00:10:00,
2013-05-05 19:15:00,69.6,42.0,29.98,North,0,2.2,5.4,37,0.00,,,0.00,WUHU21623XXSP,2013-05-06 00:15:00,
2013-05-05 19:20:00,68.9,42.1,29.98,South,180,2.5,5.4,38,0.00,,,0.00,WUHU21623XXSP,2013-05-06 00:20:00,
2013-05-05 19:25:00,68.4,42.4,29.98,ENE,67,0.0,3.1,39,0.00,,,0.00,WUHU21623XXSP,2013-05-06 00:25:00,
2013-05-05 19:30:00,67.8,41.9,29.99,SE,135,0.0,2.0,39,0.00,,,0.00,WUHU21623XXSP,2013-05-06 00:30:00,
2013-05-05 19:35:00,67.3,42.2,29.99,SE,135,0.0,1.8,40,0.00,,,0.00,WUHU21623XXSP,2013-05-06 00:35:00,
2013-05-05 19:40:00,66.7,42.3,29.99,ESE,112,0.0,0.0,41,0.00,,,0.00,WUHU21623XXSP,2013-05-06 00:40:00,
2013-05-05 19:45:00,66.2,42.4,29.99,ENE,67,0.0,1.3,42,0.00,,,0.00,WUHU21623XXSP,2013-05-06 00:45:00,
2013-05-05 19:50:00,65.7,42.6,29.98,SW,225,0.0,1.3,43,0.00,,,0.00,WUHU21623XXSP,2013-05-06 00:50:00,
2013-05-05 19:55:00,64.9,42.9,29.98,SSW,202,0.0,0.0,45,0.00,,,0.00,WUHU21623XXSP,2013-05-06 00:55:00,
2013-05-05 20:00:00,64.0,42.7,29.98,South,180,0.0,0.0,46,0.00,,,0.00,WUHU21623XXSP,2013-05-06 01:00:00,
2013-05-05 20:05:00,63.7,42.9,29.98,South,180,0.0,0.9,47,0.00,,,0.00,WUHU21623XXSP,2013-05-06 01:05:00,
2013-05-05 20:10:00,63.1,43.6,29.99,South,180,0.0,0.9,49,0.00,,,0.00,WUHU21623XXSP,2013-05-06 01:10:00,
2013-05-05 20:15:00,62.4,43.5,29.99,South,180,0.0,0.0,50,0.00,,,0.00,WUHU21623XXSP,2013-05-06 01:15:00,
2013-05-05 20:20:00,61.7,43.9,29.99,South,180,0.0,0.0,52,0.00,,,0.00,WUHU21623XXSP,2013-05-06 01:20:00,
2013-05-05 20:25:00,61.0,43.7,29.99,South,180,0.0,0.0,53,0.00,,,0.00,WUHU21623XXSP,2013-05-06 01:25:00,
2013-05-05 20:30:00,61.0,43.7,29.99,South,180,0.0,0.0,53,0.00,,,0.00,WUHU21623XXSP,2013-05-06 01:30:00,
2013-05-05 20:35:00,60.4,43.2,29.99,SSE,157,0.0,1.1,53,0.00,,,0.00,WUHU21623XXSP,2013-05-06 01:35:00,
2013-05-05 20:40:00,59.9,43.2,29.99,SSE,157,0.0,1.1,54,0.00,,,0.00,WUHU21623XXSP,2013-05-06 01:40:00,
2013-05-05 20:45:00,59.7,43.5,29.99,WSW,247,0.0,1.1,55,0.00,,,0.00,WUHU21623XXSP,2013-05-06 01:45:00,
2013-05-05 20:50:00,59.5,43.3,29.99,South,180,0.0,1.1,55,0.00,,,0.00,WUHU21623XXSP,2013-05-06 01:50:00,
2013-05-05 20:55:00,59.4,43.6,29.99,SW,225,0.0,2.9,56,0.00,,,0.00,WUHU21623XXSP,2013-05-06 01:55:00,
2013-05-05 21:00:00,59.5,44.3,29.99,ENE,67,0.0,3.8,57,0.00,,,0.00,WUHU21623XXSP,2013-05-06 02:00:00,
2013-05-05 21:05:00,59.5,44.3,29.99,ENE,67,0.0,3.8,57,0.00,,,0.00,WUHU21623XXSP,2013-05-06 02:05:00,
2013-05-05 21:10:00,59.4,44.1,29.99,ENE,67,0.0,0.0,57,0.00,,,0.00,WUHU21623XXSP,2013-05-06 02:10:00,
2013-05-05 21:15:00,58.8,44.0,30.00,ESE,112,0.0,0.0,58,0.00,,,0.00,WUHU21623XXSP,2013-05-06 02:15:00,
2013-05-05 21:20:00,58.8,44.0,30.00,ENE,67,0.0,0.0,58,0.00,,,0.00,WUHU21623XXSP,2013-05-06 02:20:00,
2013-05-05 21:25:00,58.3,44.0,30.00,ENE,67,0.0,0.0,59,0.00,,,0.00,WUHU21623XXSP,2013-05-06 02:25:00,
2013-05-05 21:30:00,57.7,43.5,29.99,ENE,67,0.0,0.0,59,0.00,,,0.00,WUHU21623XXSP,2013-05-06 02:30:00,
2013-05-05 21:35:00,57.4,43.7,29.99,North,0,0.0,0.0,60,0.00,,,0.00,WUHU21623XXSP,2013-05-06 02:35:00,
2013-05-05 21:40:00,57.2,44.1,30.00,ENE,67,0.0,0.0,61,0.00,,,0.00,WUHU21623XXSP,2013-05-06 02:40:00,
2013-05-05 21:45:00,57.0,43.7,30.00,NE,45,0.0,0.0,61,0.00,,,0.00,WUHU21623XXSP,2013-05-06 02:45:00,
2013-05-05 21:50:00,56.7,43.8,29.99,South,180,0.0,0.0,62,0.00,,,0.00,WUHU21623XXSP,2013-05-06 02:50:00,
2013-05-05 21:55:00,56.3,43.4,30.00,SE,135,0.0,0.0,62,0.00,,,0.00,WUHU21623XXSP,2013-05-06 02:55:00,
2013-05-05 22:00:00,55.9,43.1,30.00,ESE,112,0.0,0.0,62,0.00,,,0.00,WUHU21623XXSP,2013-05-06 03:00:00,
2013-05-05 22:05:00,55.6,42.7,29.99,WSW,247,0.0,1.3,62,0.00,,,0.00,WUHU21623XXSP,2013-05-06 03:05:00,
2013-05-05 22:10:00,55.6,42.7,30.00,SSE,157,0.0,1.3,62,0.00,,,0.00,WUHU21623XXSP,2013-05-06 03:10:00,
2013-05-05 22:15:00,55.6,42.3,29.99,ESE,112,0.0,0.0,61,0.00,,,0.00,WUHU21623XXSP,2013-05-06 03:15:00,
2013-05-05 22:20:00,55.4,41.3,30.00,West,270,0.0,2.0,59,0.00,,,0.00,WUHU21623XXSP,2013-05-06 03:20:00,
2013-05-05 22:25:00,55.4,41.6,30.00,SSW,202,0.0,2.0,60,0.00,,,0.00,WUHU21623XXSP,2013-05-06 03:25:00,
2013-05-05 22:30:00,55.2,41.1,29.99,ESE,112,0.0,1.3,59,0.00,,,0.00,WUHU21623XXSP,2013-05-06 03:30:00,
2013-05-05 22:35:00,55.0,40.5,30.00,SSE,157,0.0,1.8,58,0.00,,,0.00,WUHU21623XXSP,2013-05-06 03:35:00,
2013-05-05 22:40:00,55.0,40.5,30.00,SSW,202,0.0,1.8,58,0.00,,,0.00,WUHU21623XXSP,2013-05-06 03:40:00,
2013-05-05 22:45:00,55.0,40.5,30.00,SE,135,0.0,2.7,58,0.00,,,0.00,WUHU21623XXSP,2013-05-06 03:45:00,
2013-05-05 22:50:00,54.9,40.3,30.00,SSE,157,0.0,2.7,58,0.00,,,0.00,WUHU21623XXSP,2013-05-06 03:50:00,
2013-05-05 22:55:00,54.7,39.7,30.00,SSE,157,0.0,0.0,57,0.00,,,0.00,WUHU21623XXSP,2013-05-06 03:55:00,
2013-05-05 23:00:00,54.5,40.0,30.00,ESE,112,0.0,2.5,58,0.00,,,0.00,WUHU21623XXSP,2013-05-06 04:00:00,
2013-05-05 23:01:00,54.5,40.0,30.00,ESE,112,0.0,2.5,58,0.00,,,0.00,WUHU21623XXSP,2013-05-06 04:01:00,
2013-05-05 23:06:00,54.1,40.1,30.00,SSE,157,0.0,2.5,59,0.00,,,0.00,WUHU21623XXSP,2013-05-06 04:06:00,
2013-05-05 23:11:00,54.1,40.1,30.00,South,180,0.0,0.0,59,0.00,,,0.00,WUHU21623XXSP,2013-05-06 04:11:00,
2013-05-05 23:16:00,53.8,39.8,30.00,SSE,157,0.0,0.0,59,0.00,,,0.00,WUHU21623XXSP,2013-05-06 04:16:00,
2013-05-05 23:21:00,53.6,39.6,30.00,SSE,157,0.0,0.0,59,0.00,,,0.00,WUHU21623XXSP,2013-05-06 04:21:00,
2013-05-05 23:26:00,53.4,39.9,29.99,ESE,112,0.0,0.0,60,0.00,,,0.00,WUHU21623XXSP,2013-05-06 04:26:00,
2013-05-05 23:31:00,53.2,39.7,29.99,SE,135,0.0,0.0,60,0.00,,,0.00,WUHU21623XXSP,2013-05-06 04:31:00,
2013-05-05 23:36:00,52.9,39.4,29.99,SE,135,0.0,0.0,60,0.00,,,0.00,WUHU21623XXSP,2013-05-06 04:36:00,
2013-05-05 23:41:00,52.5,39.0,29.99,SE,135,0.0,0.0,60,0.00,,,0.00,WUHU21623XXSP,2013-05-06 04:41:00,
2013-05-05 23:46:00,52.5,39.0,29.99,South,180,0.0,0.0,60,0.00,,,0.00,WUHU21623XXSP,2013-05-06 04:46:00,
2013-05-05 23:51:00,52.7,39.2,29.99,SSE,157,0.0,0.0,60,0.00,,,0.00,WUHU21623XXSP,2013-05-06 04:51:00,
2013-05-05 23:56:00,52.7,39.6,29.99,SSW,202,0.0,0.0,61,0.00,,,0.00,WUHU21623XXSP,2013-05-06 04:56:00,